Weather History for Fairmont, MN

Change the Weather History Date:

Thursday, December 19, 2013

  Actual Average Record
Temperature  
Mean Temperature 22 °F -  
Max Temperature 30 °F 25 °F 48 °F (1979)
Min Temperature 15 °F 8 °F -24 °F (1983)
Degree Days  
Heating Degree Days 42    
Moisture  
Dew Point 13 °F    
Average Humidity 78    
Maximum Humidity 86    
Minimum Humidity 73    
Precipitation  
Precipitation 0.00 in - - ()
Sea Level Pressure  
Sea Level Pressure 29.91 in    
Wind  
Wind Speed 14 mph (North)    
Max Wind Speed 21 mph    
Max Gust Speed 25 mph    
Visibility 10 miles    
Events      
Averages and records for this station are not official NWS values.
T = Trace of Precipitation, MM = Missing Value Source: NWS Daily Summary

Daily Weather History Graph

Daily Weather History Graph

Search for Another Location

Airport:

Trip Planner

Search our weather history database for the weather conditions in past years. The results will help you decide how hot, cold, wet, or windy it might be!

Date:

Astronomy

Dec. 19, 2013 Rise Set
Actual Time 7:47 AM CST 4:42 PM CST
Civil Twilight 7:14 AM CST 5:15 PM CST
Nautical Twilight 6:37 AM CST 5:52 PM CST
Astronomical Twilight 6:02 AM CST 6:27 PM CST
Moon 7:13 PM CST (12/19) 9:02 AM CST (12/19)
Length of Visible Light 10h 01m
Length of Day
8h 55m
Waning Gibbous, 95% of the Moon is Illuminated
Dec 19
Waning Gibbous
Dec 25
Last Quarter
Jan 1
New
Jan 7
First Quarter
Jan 15
Full

Hourly Weather History & Observations

Time (CST) Temp. Windchill Dew Point Humidity Pressure Visibility Wind Dir Wind Speed Gust Speed Precip Events Conditions
12:15 AM 30.2 °F 21.9 °F 23.0 °F 75% 29.80 in 10.0 mi NW 9.2 mph - N/A   Clear
12:35 AM 30.2 °F 21.3 °F 23.0 °F 75% 29.81 in 10.0 mi NNW 10.4 mph - N/A   Clear
12:55 AM 30.2 °F 19.8 °F 23.0 °F 75% 29.81 in 10.0 mi NNW 13.8 mph - N/A   Clear
1:15 AM 28.4 °F 17.5 °F 21.2 °F 74% 29.81 in 10.0 mi NNW 13.8 mph - N/A   Clear
1:35 AM 26.6 °F 14.3 °F 21.2 °F 80% 29.82 in 10.0 mi NNW 16.1 mph - N/A   Clear
1:55 AM 26.6 °F 13.4 °F 19.4 °F 74% 29.83 in 10.0 mi NNW 18.4 mph - N/A   Clear
2:15 AM 24.8 °F 11.9 °F 19.4 °F 80% 29.84 in 10.0 mi NNW 16.1 mph - N/A   Clear
2:35 AM 23.0 °F 10.1 °F 17.6 °F 80% 29.85 in 10.0 mi NNW 15.0 mph - N/A   Clear
2:55 AM 21.2 °F 7.8 °F 17.6 °F 86% 29.86 in 10.0 mi NNW 15.0 mph - N/A   Clear
3:15 AM 19.4 °F 5.0 °F 15.8 °F 86% 29.86 in 10.0 mi NNW 16.1 mph - N/A   Clear
3:35 AM 19.4 °F 6.6 °F 14.0 °F 80% 29.87 in 10.0 mi NNW 12.7 mph - N/A   Clear
3:55 AM 19.4 °F 5.0 °F 14.0 °F 80% 29.88 in 10.0 mi NNW 16.1 mph - N/A   Clear
4:15 AM 17.6 °F 2.7 °F 14.0 °F 86% 29.88 in 10.0 mi NNW 16.1 mph - N/A   Clear
4:35 AM 17.6 °F 1.3 °F 12.2 °F 79% 29.88 in 10.0 mi NNW 19.6 mph - N/A   Clear
4:55 AM 17.6 °F 2.2 °F 12.2 °F 79% 29.88 in 10.0 mi NNW 17.3 mph - N/A   Clear
5:15 AM 15.8 °F 0.9 °F 10.4 °F 79% 29.89 in 10.0 mi NNW 15.0 mph - N/A   Clear
5:35 AM 15.8 °F 0.3 °F 10.4 °F 79% 29.90 in 10.0 mi NNW 16.1 mph - N/A   Clear
5:55 AM 15.8 °F 0.3 °F 10.4 °F 79% 29.90 in 10.0 mi NNW 16.1 mph - N/A   Clear
6:15 AM 15.8 °F 0.3 °F 10.4 °F 79% 29.91 in 10.0 mi NNW 16.1 mph 21.9 mph N/A   Clear
6:35 AM 15.8 °F 0.9 °F 10.4 °F 79% 29.93 in 10.0 mi NNW 15.0 mph - N/A   Clear
6:55 AM 15.8 °F 0.3 °F 10.4 °F 79% 29.93 in 10.0 mi North 16.1 mph - N/A   Clear
7:15 AM 15.8 °F -0.2 °F 10.4 °F 79% 29.92 in 10.0 mi North 17.3 mph 23.0 mph N/A   Clear
7:35 AM 15.8 °F -0.2 °F 10.4 °F 79% 29.93 in 10.0 mi North 17.3 mph - N/A   Clear
7:55 AM 15.8 °F 1.4 °F 10.4 °F 79% 29.94 in 10.0 mi North 13.8 mph - N/A   Clear
8:15 AM 15.8 °F 1.4 °F 10.4 °F 79% 29.95 in 10.0 mi North 13.8 mph - N/A   Clear
8:35 AM 15.8 °F 0.9 °F 10.4 °F 79% 29.95 in 10.0 mi North 15.0 mph - N/A   Clear
8:55 AM 15.8 °F 1.4 °F 12.2 °F 86% 29.96 in 10.0 mi North 13.8 mph - N/A   Clear
9:15 AM 15.8 °F 1.4 °F 12.2 °F 86% 29.96 in 10.0 mi North 13.8 mph - N/A   Clear
9:35 AM 15.8 °F 0.3 °F 12.2 °F 86% 29.96 in 10.0 mi North 16.1 mph - N/A   Clear
9:55 AM 17.6 °F 2.7 °F 12.2 °F 79% 29.96 in 10.0 mi North 16.1 mph - N/A   Clear
10:15 AM 17.6 °F 3.7 °F 12.2 °F 79% 29.97 in 10.0 mi North 13.8 mph - N/A   Clear
10:35 AM 17.6 °F 3.2 °F 12.2 °F 79% 29.97 in 10.0 mi North 15.0 mph - N/A   Partly Cloudy
10:55 AM 17.6 °F 4.3 °F 12.2 °F 79% 29.97 in 10.0 mi North 12.7 mph - N/A   Mostly Cloudy
11:15 AM 19.4 °F 7.2 °F 14.0 °F 80% 29.95 in 10.0 mi North 11.5 mph 19.6 mph N/A   Overcast
11:35 AM 19.4 °F 6.0 °F 14.0 °F 80% 29.93 in 10.0 mi NNE 13.8 mph - N/A   Overcast
11:55 AM 19.4 °F 7.9 °F 15.8 °F 86% 29.94 in 10.0 mi NNE 10.4 mph - N/A   Overcast
12:15 PM 21.2 °F 7.8 °F 15.8 °F 80% 29.93 in 10.0 mi NNE 15.0 mph - N/A   Overcast
12:35 PM 21.2 °F 8.3 °F 15.8 °F 80% 29.92 in 10.0 mi NNE 13.8 mph - N/A   Overcast
12:55 PM 21.2 °F 8.9 °F 15.8 °F 80% 29.91 in 10.0 mi NE 12.7 mph - N/A   Mostly Cloudy
1:15 PM 21.2 °F 8.3 °F 15.8 °F 80% 29.90 in 10.0 mi NNE 13.8 mph - N/A   Mostly Cloudy
1:35 PM 21.2 °F 7.8 °F 14.0 °F 74% 29.90 in 10.0 mi NNE 15.0 mph - N/A   Overcast
1:55 PM 19.4 °F 5.5 °F 14.0 °F 80% 29.90 in 10.0 mi NNE 15.0 mph - N/A   Overcast
2:15 PM 19.4 °F 4.1 °F 14.0 °F 80% 29.89 in 10.0 mi NNE 18.4 mph - N/A   Overcast
2:35 PM 19.4 °F 5.0 °F 14.0 °F 80% 29.89 in 10.0 mi NNE 16.1 mph - N/A   Overcast
2:55 PM 19.4 °F 4.1 °F 14.0 °F 80% 29.90 in 10.0 mi NNE 18.4 mph 21.9 mph N/A   Overcast
3:15 PM 19.4 °F 5.5 °F 12.2 °F 74% 29.90 in 10.0 mi NNE 15.0 mph - N/A   Overcast
3:35 PM 19.4 °F 5.5 °F 12.2 °F 74% 29.91 in 10.0 mi NNE 15.0 mph - N/A   Overcast
3:55 PM 19.4 °F 4.5 °F 12.2 °F 74% 29.91 in 10.0 mi NE 17.3 mph - N/A   Overcast
4:15 PM 19.4 °F 4.5 °F 12.2 °F 74% 29.91 in 10.0 mi NE 17.3 mph - N/A   Overcast
4:35 PM 19.4 °F 5.5 °F 12.2 °F 74% 29.91 in 10.0 mi NNE 15.0 mph 19.6 mph N/A   Overcast
4:55 PM 19.4 °F 3.2 °F 12.2 °F 74% 29.90 in 10.0 mi NE 20.7 mph 25.3 mph N/A   Overcast
5:15 PM 17.6 °F 2.2 °F 10.4 °F 73% 29.92 in 10.0 mi NNE 17.3 mph - N/A   Overcast
5:35 PM 17.6 °F 3.2 °F 10.4 °F 73% 29.91 in 10.0 mi NNE 15.0 mph - N/A   Overcast
5:55 PM 17.6 °F 3.7 °F 10.4 °F 73% 29.93 in 10.0 mi NNE 13.8 mph - N/A   Overcast
6:15 PM 17.6 °F 2.7 °F 10.4 °F 73% 29.93 in 10.0 mi NNE 16.1 mph - N/A   Overcast
6:35 PM 17.6 °F 3.2 °F 10.4 °F 73% 29.93 in 10.0 mi NNE 15.0 mph - N/A   Overcast
6:55 PM 17.6 °F 4.3 °F 10.4 °F 73% 29.92 in 10.0 mi NNE 12.7 mph - N/A   Overcast
7:15 PM 17.6 °F 3.7 °F 10.4 °F 73% 29.94 in 10.0 mi NNE 13.8 mph 18.4 mph N/A   Overcast
7:35 PM 17.6 °F 3.7 °F 10.4 °F 73% 29.94 in 10.0 mi NNE 13.8 mph 18.4 mph N/A   Overcast
7:55 PM 17.6 °F 4.3 °F 10.4 °F 73% 29.94 in 10.0 mi North 12.7 mph - N/A   Overcast
8:15 PM 17.6 °F 4.3 °F 10.4 °F 73% 29.94 in 10.0 mi North 12.7 mph - N/A   Overcast
8:35 PM 17.6 °F 2.7 °F 10.4 °F 73% 29.93 in 10.0 mi North 16.1 mph - N/A   Overcast
8:55 PM 15.8 °F 0.3 °F 10.4 °F 79% 29.93 in 10.0 mi North 16.1 mph 19.6 mph N/A   Overcast
9:15 PM 15.8 °F 0.3 °F 10.4 °F 79% 29.93 in 10.0 mi North 16.1 mph - N/A   Overcast
9:35 PM 15.8 °F 0.9 °F 10.4 °F 79% 29.93 in 10.0 mi North 15.0 mph - N/A   Overcast
9:55 PM 15.8 °F 0.9 °F 10.4 °F 79% 29.93 in 10.0 mi North 15.0 mph - N/A   Overcast
10:15 PM 15.8 °F 1.4 °F 10.4 °F 79% 29.93 in 10.0 mi North 13.8 mph 19.6 mph N/A   Overcast
10:35 PM 15.8 °F 0.9 °F 10.4 °F 79% 29.95 in 10.0 mi North 15.0 mph - N/A   Overcast
10:55 PM 15.8 °F 2.7 °F 10.4 °F 79% 29.95 in 10.0 mi North 11.5 mph - N/A   Overcast
11:15 PM 15.8 °F 2.1 °F 10.4 °F 79% 29.93 in 10.0 mi North 12.7 mph - N/A   Overcast
11:35 PM 15.8 °F 2.7 °F 10.4 °F 79% 29.94 in 10.0 mi North 11.5 mph - N/A   Overcast
11:55 PM 15.8 °F 2.1 °F 10.4 °F 79% 29.94 in 10.0 mi North 12.7 mph - N/A   Overcast